Date String (YYYY-MM-DD hh:mm:ss) UTC,Instrument flags,absolute air pressure of the measurement (hPa),sample flow rate (lpm),inlet stack bypass flow (lpm),air temperature of the measurement (°C),ambient temperature measured by the external sensor (°C),aerosol sample conditioner tube jacket temperature (°C),OPC LED temperature (°C),internal box temperature (°C),relative humidity of the measurement (%),span deviation,mass concentration of particles derived from Lorenz-Mie calculation of OPC scattering (μg/m³),mass concentration of particles derived from Lorenz-Mie calculation of OPC scattering (μg/m³),mass concentration of particles derived from Lorenz-Mie calculation of OPC scattering (μg/m³)
DateTimeUTC,F1_M11,P_M11,Q1_M11,Q2_M11,T1_M11,T2_M11,T3_M11,T4_M11,T5_M11,U1_M11,ZSPAN_M11,X2_M11,X0_M11,X1_M11
2023-07-21 23:00:00,SystemResetWarning,0836.3,5.00,000.00,028.8,026.4,000.0,037.1,030.3,29.9,0000.0,0006.53,0010.37,0006.13
2023-07-21 23:01:00,SystemResetWarning,0836.3,4.99,000.00,028.8,026.8,000.0,037.2,030.4,30.0,0000.2,0006.54,0010.06,0006.13
2023-07-21 23:02:00,SystemResetWarning,0836.3,5.00,000.00,028.8,027.1,000.0,037.2,030.5,30.4,-000.0,0006.53,0009.60,0006.13
2023-07-21 23:03:00,SystemResetWarning,0836.3,5.01,000.00,028.9,027.5,000.0,037.2,030.6,30.0,0000.2,0006.50,0009.56,0006.12
2023-07-21 23:04:00,SystemResetWarning,0836.3,4.99,000.00,028.9,027.7,000.0,037.2,030.7,30.5,-000.2,0006.47,0009.51,0006.11
2023-07-21 23:05:00,SystemResetWarning,0836.3,5.00,000.00,029.0,027.9,000.0,037.3,030.8,31.9,-000.9,0006.45,0009.43,0006.10
2023-07-21 23:06:00,SystemResetWarning,0836.2,4.99,000.00,029.0,026.9,000.0,037.2,030.7,29.3,-000.4,0006.40,0009.25,0006.09
2023-07-21 23:07:00,SystemResetWarning,0836.2,5.00,000.00,028.9,025.4,000.0,037.1,030.4,29.2,-000.4,0006.37,0009.14,0006.07
2023-07-21 23:08:00,SystemResetWarning,0836.2,5.00,000.00,028.9,025.0,000.0,037.0,030.3,30.2,-000.3,0006.40,0009.19,0006.07
2023-07-21 23:09:00,SystemResetWarning,0836.2,5.01,000.00,028.8,025.2,000.0,037.0,030.1,30.7,-000.4,0006.43,0009.33,0006.08
2023-07-21 23:10:00,SystemResetWarning,0836.1,5.00,000.00,028.8,025.6,000.0,037.1,030.2,31.2,-000.4,0006.44,0009.66,0006.08
2023-07-21 23:11:00,SystemResetWarning,0836.1,5.00,000.00,028.8,026.1,000.0,037.1,030.3,32.6,-000.7,0006.44,0009.79,0006.09
2023-07-21 23:12:00,SystemResetWarning,0836.1,5.00,000.00,028.8,026.5,000.0,037.1,030.4,33.0,-000.9,0006.46,0010.35,0006.09
2023-07-21 23:13:00,SystemResetWarning,0836.1,5.00,000.00,028.8,026.9,000.0,037.2,030.5,31.8,-000.3,0006.45,0011.10,0006.09
2023-07-21 23:14:00,SystemResetWarning,0836.1,4.99,000.00,028.9,027.2,000.0,037.2,030.6,31.2,-000.6,0006.48,0011.42,0006.09
2023-07-21 23:15:00,SystemResetWarning,0836.1,4.99,000.00,028.9,027.5,000.0,037.2,030.7,31.7,-000.5,0006.52,0012.75,0006.10
2023-07-21 23:16:00,SystemResetWarning,0836.1,5.00,000.00,029.0,027.8,000.0,037.3,030.7,31.5,0000.2,0006.54,0012.79,0006.12
2023-07-21 23:17:00,SystemResetWarning,0836.1,4.98,000.00,029.0,027.2,000.0,037.2,030.7,31.3,-000.3,0006.58,0013.06,0006.13
2023-07-21 23:18:00,SystemResetWarning,0836.1,5.00,000.00,029.0,025.6,000.0,037.1,030.5,32.1,0000.1,0006.57,0013.07,0006.13
2023-07-21 23:19:00,SystemResetWarning,0836.1,5.01,000.00,028.9,025.0,000.0,037.0,030.3,30.7,-000.2,0006.52,0013.37,0006.12
2023-07-21 23:20:00,SystemResetWarning,0836.1,5.01,000.00,028.8,025.1,000.0,037.0,030.1,29.4,-000.4,0006.51,0013.28,0006.13
2023-07-21 23:21:00,SystemResetWarning,0836.1,4.99,000.00,028.8,025.5,000.0,037.1,030.2,29.1,-000.2,0006.52,0014.21,0006.14
2023-07-21 23:22:00,SystemResetWarning,0836.1,5.00,000.00,028.8,026.0,000.0,037.1,030.3,30.1,0000.0,0006.52,0014.30,0006.14
2023-07-21 23:23:00,SystemResetWarning,0836.1,5.00,000.00,028.8,026.4,000.0,037.1,030.4,30.5,-000.0,0006.51,0014.29,0006.15
2023-07-21 23:24:00,SystemResetWarning,0836.1,5.01,000.00,028.8,026.8,000.0,037.2,030.5,30.1,-000.6,0006.53,0013.38,0006.16
2023-07-21 23:25:00,SystemResetWarning,0836.1,4.99,000.00,028.9,027.2,000.0,037.2,030.6,29.8,-000.2,0006.50,0013.30,0006.16
2023-07-21 23:26:00,SystemResetWarning,0836.1,5.00,000.00,028.9,027.5,000.0,037.2,030.7,29.2,0000.2,0006.47,0011.86,0006.15
2023-07-21 23:27:00,SystemResetWarning,0836.1,5.01,000.00,029.0,027.8,000.0,037.3,030.8,28.6,0000.2,0006.46,0012.02,0006.15
2023-07-21 23:28:00,SystemResetWarning,0836.1,4.99,000.00,029.0,027.5,000.0,037.2,030.7,28.8,0000.6,0006.46,0012.12,0006.14
2023-07-21 23:29:00,SystemResetWarning,0836.1,4.99,000.00,029.0,025.9,000.0,037.1,030.5,28.9,0000.6,0006.52,0012.16,0006.14
2023-07-21 23:30:00,SystemResetWarning,0836.0,5.02,000.00,028.9,025.0,000.0,037.0,030.3,29.5,0000.6,0006.54,0011.96,0006.15
2023-07-21 23:31:00,SystemResetWarning,0836.0,5.00,000.00,028.8,025.0,000.0,037.0,030.1,29.2,0001.1,0006.55,0012.85,0006.14
2023-07-21 23:32:00,SystemResetWarning,0836.0,5.00,000.00,028.7,025.4,000.0,037.1,030.1,28.7,0001.7,0006.53,0012.23,0006.13
2023-07-21 23:33:00,SystemResetWarning,0836.0,5.00,000.00,028.7,025.9,000.0,037.1,030.2,28.5,0000.1,0006.53,0012.37,0006.12
2023-07-21 23:34:00,SystemResetWarning,0836.0,5.01,000.00,028.8,026.3,000.0,037.1,030.3,28.5,0000.2,0006.52,0012.26,0006.13
2023-07-21 23:35:00,SystemResetWarning,0836.1,5.00,000.00,028.8,026.8,000.0,037.2,030.4,28.3,0000.4,0006.51,0011.91,0006.12
2023-07-21 23:36:00,SystemResetWarning,0836.1,4.99,000.00,028.8,027.1,000.0,037.2,030.5,28.3,0000.8,0006.50,0011.88,0006.13
2023-07-21 23:37:00,SystemResetWarning,0836.0,5.00,000.00,028.9,027.4,000.0,037.2,030.6,28.9,0000.4,0006.51,0012.02,0006.14
2023-07-21 23:38:00,SystemResetWarning,0836.0,5.00,000.00,028.9,027.7,000.0,037.2,030.7,28.1,0000.2,0006.51,0012.15,0006.12
2023-07-21 23:39:00,SystemResetWarning,0836.0,5.00,000.00,029.0,027.6,000.0,037.2,030.8,28.1,0000.1,0006.52,0011.90,0006.11
2023-07-21 23:40:00,SystemResetWarning,0835.9,5.00,000.00,029.0,026.2,000.0,037.1,030.5,29.5,-000.1,0006.45,0011.83,0006.10
2023-07-21 23:41:00,SystemResetWarning,0835.9,5.00,000.00,028.9,025.1,000.0,037.0,030.4,29.2,-000.5,0006.43,0011.80,0006.09
2023-07-21 23:42:00,SystemResetWarning,0835.8,5.00,000.00,028.8,025.0,000.0,037.0,030.2,27.9,-000.6,0006.44,0010.70,0006.10
2023-07-21 23:43:00,SystemResetWarning,0835.8,5.01,000.00,028.8,025.3,000.0,037.1,030.1,29.0,-000.5,0006.46,0010.23,0006.11
2023-07-21 23:44:00,SystemResetWarning,0835.8,5.00,000.00,028.7,025.8,000.0,037.1,030.2,29.1,-000.1,0006.45,0010.16,0006.11
2023-07-21 23:45:00,SystemResetWarning,0835.7,5.00,000.00,028.7,026.2,000.0,037.1,030.3,28.2,0000.3,0006.45,0010.89,0006.11
2023-07-21 23:46:00,SystemResetWarning,0835.7,5.00,000.00,028.8,026.7,000.0,037.2,030.4,28.7,0000.5,0006.46,0010.89,0006.12
2023-07-21 23:47:00,SystemResetWarning,0835.6,5.00,000.00,028.8,027.1,000.0,037.2,030.5,28.5,0000.4,0006.48,0010.98,0006.13
2023-07-21 23:48:00,SystemResetWarning,0835.8,5.00,000.00,028.9,027.4,000.0,037.2,030.6,28.9,0000.0,0006.49,0010.99,0006.13
2023-07-21 23:49:00,SystemResetWarning,0835.7,4.99,000.00,028.9,027.6,000.0,037.2,030.7,28.3,0000.0,0006.53,0010.76,0006.16
2023-07-21 23:50:00,SystemResetWarning,0835.7,5.00,000.00,029.0,027.8,000.0,037.2,030.8,28.4,0000.0,0006.55,0010.74,0006.19
2023-07-21 23:51:00,SystemResetWarning,0835.7,4.98,000.00,029.0,026.6,000.0,037.1,030.6,25.4,0000.5,0006.58,0010.87,0006.22
2023-07-21 23:52:00,SystemResetWarning,0835.6,5.02,000.00,028.9,025.2,000.0,037.0,030.4,26.2,0001.8,0006.64,0011.00,0006.26
2023-07-21 23:53:00,SystemResetWarning,0835.6,5.01,000.00,028.8,025.0,000.0,037.0,030.2,25.6,0000.1,0006.65,0011.09,0006.27
2023-07-21 23:54:00,SystemResetWarning,0835.6,5.00,000.00,028.7,025.3,000.0,037.0,030.1,26.2,0000.4,0006.65,0011.04,0006.28
2023-07-21 23:55:00,SystemResetWarning,0835.7,5.00,000.00,028.7,025.7,000.0,037.1,030.2,25.2,0000.0,0006.66,0011.06,0006.31
2023-07-21 23:56:00,SystemResetWarning,0835.7,5.00,000.00,028.7,026.2,000.0,037.1,030.3,25.0,0000.0,0006.67,0010.64,0006.31
2023-07-21 23:57:00,SystemResetWarning,0835.7,5.00,000.00,028.8,026.6,000.0,037.1,030.4,25.6,0000.0,0006.67,0010.82,0006.31
2023-07-21 23:58:00,SystemResetWarning,0835.7,5.00,000.00,028.8,027.0,000.0,037.2,030.5,26.9,0000.0,0006.68,0010.82,0006.31
2023-07-21 23:59:00,SystemResetWarning,0835.8,5.00,000.00,028.9,027.4,000.0,037.2,030.6,27.1,0000.3,0006.69,0010.77,0006.32
